Location: Arrien
(42.8963°N, 1.0429°E)
Time: 10:22:24
(UTC+00:00)

ISS - Pass Details

Date: 21 February 2026
Orbit: 416 x 426 km, 51.6° (Epoch: 10 March)

Event Time Altitude Azimuth Distance (km) Brightness Sun altitude
Exits shadow 04:46:00 22° 11° (N) 972 -1.8 -22.4°
Drops below altitude 10° 04:47:54 10° 41° (NE) 1,495 -0.3 -22.1°
Sets 04:50:14 0° 55° (NE) 2,359 1.1 -21.6°
